User: anonymous   Login
Location: Oshawa
(43.9000°N, 78.8670°W)
Time: 13:02:11
(UTC-04:00)
Language:

ITAMSAT 1 - Orbit

View from above orbital plane
View from above orbital plane
View from above satellite
View from above satellite

Ground track
Ground track

The orbit data is extracted from the following two-line orbital elements,

1 22826U 93061D   17083.85921283 +.00000008 +00000-0 +20551-4 0  9991
2 22826 098.7966 048.5415 0008403 202.0151 158.0671 14.30317695225275
Epoch (UTC): 24 March 2017 20:37:15
Eccentricity: 0.0008403
inclination: 98.7966°
perigee height: 784 km
apogee height: 796 km
right ascension of ascending node: 48.5415°
argument of perigee: 202.0151°
revolutions per day: 14.30317695
mean anomaly at epoch: 158.0671°
orbit number at epoch: 22527

The dashed part of the orbit path shows where the satellite is in the earth's shadow,  

DLR